This demonstration page uses our WeatherBlox Daily Observations layout. Learn more.

Left ArrowRight Arrow

34.02893, -84.19858

Hourly Observations for March 20, 2022

Temp ( °F °C ) Dew Point ( °F °C ) Humidity (%) Winds ( mph kmh ) Pressure ( in mb ) Visibility ( mi km ) Precip ( " mm )
12:53 am 00:53 Clear 47 8.3 36 2.2 66 66 NW 10 17 30.14 1021 10 16 0.00 0.00
1:53 am 01:53 Clear 47 8.3 35 1.7 63 63 WNW 10 17 30.14 1021 10 16 0.00 0.00
2:53 am 02:53 Clear 46 7.8 34 1.1 63 63 NW 9 15 30.16 1021 10 16 0.00 0.00
3:53 am 03:53 Clear 45 7.2 34 1.1 66 66 NW 7 11 30.15 1021 10 16 0.00 0.00
4:53 am 04:53 Clear 44 6.7 34 1.1 68 68 WNW 6 9 30.15 1021 10 16 0.00 0.00
5:53 am 05:53 Clear 41 5 34 1.1 76 76 WNW 3 6 30.16 1022 10 16 0.00 0.00
6:53 am 06:53 Clear 40 4.4 34 1.1 79 79 WNW 5 7 30.18 1022 10 16 0.00 0.00
7:53 am 07:53 Sunny 40 4.4 34 1.1 79 79 W 5 7 30.20 1023 10 16 0.00 0.00
8:53 am 08:53 Sunny 45 7.2 36 2.2 71 71 W 6 9 30.22 1024 10 16 0.00 0.00
9:53 am 09:53 Sunny 50 10 37 2.8 61 61 NW 9 15 30.23 1024 10 16 0.00 0.00
10:53 am 10:53 Sunny 56 13.3 37 2.8 49 49 NNW 10 17 30.24 1024 10 16 0.00 0.00
11:53 am 11:53 Sunny 58 14.4 34 1.1 41 41 NW 18 30 30.26 1025 10 16 0.00 0.00
12:53 pm 12:53 Sunny 61 16.1 34 1.1 36 36 WNW 13 20 30.24 1024 10 16 0.00 0.00
1:53 pm 13:53 Sunny 63 17.2 28 -2.2 27 27 NW 22 35 30.24 1024 10 16 0.00 0.00
2:53 pm 14:53 Sunny 65 18.3 30 -1.1 27 27 WNW 16 26 30.22 1023 10 16 0.00 0.00
3:53 pm 15:53 Sunny 66 18.9 28 -2.2 24 24 NNW 15 24 30.21 1023 10 16 0.00 0.00
4:53 pm 16:53 Sunny 67 19.4 28 -2.2 23 23 N 12 19 30.20 1023 10 16 0.00 0.00
5:53 pm 17:53 Sunny 66 18.9 27 -2.8 23 23 NNW 13 20 30.19 1023 10 16 0.00 0.00
6:53 pm 18:53 Sunny 64 17.8 28 -2.2 26 26 NW 10 17 30.20 1023 10 16 0.00 0.00
7:53 pm 19:53 Clear 60 15.6 29 -1.7 31 31 NW 10 17 30.22 1023 10 16 0.00 0.00
8:53 pm 20:53 Clear 57 13.9 29 -1.7 34 34 NW 5 7 30.23 1024 10 16 0.00 0.00
9:53 pm 21:53 Clear 50 10 33 0.6 52 52 Calm 30.25 1024 10 16 0.00 0.00
10:53 pm 22:53 Clear 50 10 31 -0.6 48 48 Calm 30.26 1025 10 16 0.00 0.00
11:53 pm 23:53 Clear 46 7.8 33 0.6 61 61 Calm 30.26 1025 10 16 0.00 0.00

Powered by AerisWeather